sat.trackr.live / text

‹ back to catalog

STARLINK-4365

NORAD 53228 · 2022-084AR

PAYLOAD ACTIVE UNKNOWN

§ Identity

Operator
Country
US
Launch date
2022-07-22
Launch site
AFWTR
Launch vehicle
Mass (kg)
RCS (m²)

Purposes: comms

External: N2YO · Heavens-Above · Gunter

§ Orbital elements

Epoch: 2026-09-19T23:11:46.364640Z

Period
93.91 min
Inclination
97.2834°
Eccentricity
0.0001219
Mean motion
15.33437541 rev/d
Perigee alt
464.7 km
Apogee alt
466.4 km
Semi-major
6,843.7 km
B*
4.2556e-5
RAAN
317.8016°
Arg perigee
99.2609°
Mean anomaly
260.8772°
Rev number
22,861

§ Raw data

STARLINK-43651 53228U 22084AR  26262.96650885  .00001299  00000+0  42556-4 0  99972 53228  97.2834 317.8016 0001219  99.2609 260.8772 15.33437541228616

JSON: /api/v1/satellites/53228 · /tle

For live sub-satellite position, see the globe view (requires WebGL).

§ Visibility from observer

Set your observer location to see the next 7 days of passes ≥ 10°. The values pass through the URL so the page stays shareable.

No JS? Fill the form by hand. The geolocation button needs JavaScript.